Simultaneous Nadir Overpasses (SNOs) Predictions

Prediction of SNOs between METOP-A and TERRA Satellite Orbit:

Table of predicted SNOs for the next 14.0 days since TLE Epoch: 11/28/2020
Index Date (METOP-A) Time (METOP-A) Lat,Lon (METOP-A) SZA (METOP-A ) Date (TERRA) Time (TERRA) Lat,Lon (TERRA) SZA (TERRA ) Distance(km) Time Diff (sec)
1 12/01/2020 04:36:00 81.37, 159.08 106.24 12/01/2020 04:36:51 81.36, 158.97 106.25 2.08 51
2 12/01/2020 05:26:40 -81.37, -33.40 73.74 12/01/2020 05:26:18 -81.36, -33.47 73.76 1.43 22
3 12/04/2020 00:10:22 81.37,-134.46 106.61 12/04/2020 00:11:04 81.38,-134.28 106.66 3.31 42
4 12/04/2020 01:01:02 -81.36, 33.09 73.37 12/04/2020 01:00:32 -81.36, 32.92 73.40 2.85 30
5 12/06/2020 19:44:43 81.37, -68.03 106.92 12/06/2020 19:45:17 81.37, -67.97 106.95 1.36 34
6 12/06/2020 20:35:23 -81.36, 99.55 73.06 12/06/2020 20:34:44 -81.37, 99.64 73.06 2.08 39
7 12/09/2020 15:19:05 81.36, -1.63 107.17 12/09/2020 15:19:31 81.36, -1.71 107.17 1.33 26
8 12/09/2020 16:09:45 -81.36, 165.98 72.81 12/09/2020 16:08:58 -81.36, 165.91 72.83 1.34 47
9 12/12/2020 10:53:27 81.36, 64.74 107.35 12/12/2020 10:53:44 81.37, 64.87 107.38 2.32 17
